Time,TemperatureF,DewpointF,PressureIn,WindDirection,WindDirectionDegrees,WindSpeedMPH,WindSpeedGustMPH,Humidity,HourlyPrecipIn,Conditions,Clouds,dailyrainin,SolarRadiationWatts/m^2,SoftwareType,DateUTC
2013-01-03 00:22:00,69.0,64.0,30.32,ENE,65,17.0,28.0,83,0.00,,,-99.99,0.000000,,2013-01-03 10:22:00,
2013-01-03 00:32:00,69.0,64.0,30.32,ENE,65,17.0,28.0,83,0.00,,,-99.99,0.000000,,2013-01-03 10:32:00,
2013-01-03 00:42:00,69.0,64.0,30.32,ENE,65,17.0,28.0,83,0.00,,,-99.99,0.000000,,2013-01-03 10:42:00,
2013-01-03 00:52:00,69.0,64.0,30.32,ENE,65,17.0,28.0,83,0.00,,,-99.99,0.000000,,2013-01-03 10:52:00,
2013-01-03 01:12:00,70.0,64.0,30.30,ENE,70,15.0,25.0,80,0.00,,,0.00,0.000000,,2013-01-03 11:12:00,
2013-01-03 01:22:00,70.0,64.0,30.30,ENE,70,15.0,25.0,80,0.00,,,0.00,0.000000,,2013-01-03 11:22:00,
2013-01-03 01:33:00,70.0,64.0,30.30,ENE,70,15.0,25.0,80,0.00,,,0.00,0.000000,,2013-01-03 11:33:00,
2013-01-03 01:42:00,70.0,64.0,30.30,ENE,70,15.0,25.0,80,0.00,,,0.00,0.000000,,2013-01-03 11:42:00,
2013-01-03 01:52:00,70.0,64.0,30.30,ENE,70,15.0,25.0,80,0.00,,,0.00,0.000000,,2013-01-03 11:52:00,
2013-01-03 02:12:00,69.0,62.0,30.29,East,79,15.0,23.0,79,0.00,,,0.00,0.000000,,2013-01-03 12:12:00,
2013-01-03 02:22:00,69.0,62.0,30.29,East,79,15.0,23.0,79,0.00,,,0.00,0.000000,,2013-01-03 12:22:00,
2013-01-03 02:32:00,69.0,62.0,30.29,East,79,15.0,23.0,79,0.00,,,0.00,0.000000,,2013-01-03 12:32:00,
2013-01-03 02:42:00,69.0,62.0,30.29,East,79,15.0,23.0,79,0.00,,,0.00,0.000000,,2013-01-03 12:42:00,
2013-01-03 02:52:00,69.0,62.0,30.29,East,79,15.0,23.0,79,0.00,,,0.00,0.000000,,2013-01-03 12:52:00,
2013-01-03 03:22:00,69.0,62.0,30.28,ENE,69,16.0,26.0,78,0.00,,,-99.99,0.000000,,2013-01-03 13:22:00,
2013-01-03 03:32:00,69.0,62.0,30.28,ENE,69,16.0,26.0,78,0.00,,,-99.99,0.000000,,2013-01-03 13:32:00,
2013-01-03 03:42:00,69.0,62.0,30.28,ENE,69,16.0,26.0,78,0.00,,,-99.99,0.000000,,2013-01-03 13:42:00,
2013-01-03 03:52:00,69.0,62.0,30.28,ENE,69,16.0,26.0,78,0.00,,,-99.99,0.000000,,2013-01-03 13:52:00,
2013-01-03 03:53:00,69.0,61.0,30.27,ENE,60,14.0,22.0,77,0.00,,,-99.99,0.000000,,2013-01-03 13:53:00,
2013-01-03 04:12:00,69.0,61.0,30.27,ENE,60,14.0,22.0,77,0.00,,,-99.99,0.000000,,2013-01-03 14:12:00,
2013-01-03 04:22:00,69.0,61.0,30.27,ENE,60,14.0,22.0,77,0.00,,,-99.99,0.000000,,2013-01-03 14:22:00,
2013-01-03 04:32:00,69.0,61.0,30.27,ENE,60,14.0,22.0,77,0.00,,,-99.99,0.000000,,2013-01-03 14:32:00,
2013-01-03 04:42:00,69.0,61.0,30.27,ENE,60,14.0,22.0,77,0.00,,,-99.99,0.000000,,2013-01-03 14:42:00,
2013-01-03 05:12:00,68.0,62.0,30.27,NE,39,11.0,24.0,82,0.00,,,0.00,0.000000,,2013-01-03 15:12:00,
2013-01-03 05:22:00,68.0,62.0,30.27,NE,39,11.0,24.0,82,0.00,,,0.00,0.000000,,2013-01-03 15:22:00,
2013-01-03 05:33:00,68.0,62.0,30.27,NE,39,11.0,24.0,82,0.00,,,0.00,0.000000,,2013-01-03 15:33:00,
2013-01-03 05:42:00,68.0,62.0,30.27,NE,39,11.0,24.0,82,0.00,,,0.00,0.000000,,2013-01-03 15:42:00,
2013-01-03 05:52:00,68.0,62.0,30.27,NE,39,11.0,24.0,82,0.00,,,0.00,0.000000,,2013-01-03 15:52:00,
2013-01-03 06:12:00,68.0,63.0,30.27,NE,45,6.0,14.0,84,0.00,,,0.00,0.000000,,2013-01-03 16:12:00,
2013-01-03 06:22:00,68.0,63.0,30.27,NE,45,6.0,14.0,84,0.00,,,0.00,0.000000,,2013-01-03 16:22:00,
2013-01-03 06:33:00,68.0,63.0,30.27,NE,45,6.0,14.0,84,0.00,,,0.00,0.000000,,2013-01-03 16:33:00,
2013-01-03 06:42:00,68.0,63.0,30.27,NE,45,6.0,14.0,84,0.00,,,0.00,0.000000,,2013-01-03 16:42:00,
2013-01-03 06:52:00,68.0,63.0,30.27,NE,45,6.0,14.0,84,0.00,,,0.00,0.000000,,2013-01-03 16:52:00,
2013-01-03 07:12:00,67.0,63.0,30.29,East,82,17.0,29.0,86,0.00,,,0.00,0.000000,,2013-01-03 17:12:00,
2013-01-03 07:22:00,67.0,63.0,30.29,East,82,17.0,29.0,86,0.00,,,0.00,0.000000,,2013-01-03 17:22:00,
2013-01-03 07:33:00,67.0,63.0,30.29,East,82,17.0,29.0,86,0.00,,,0.00,0.000000,,2013-01-03 17:33:00,
2013-01-03 07:42:00,67.0,63.0,30.29,East,82,17.0,29.0,86,0.00,,,0.00,0.000000,,2013-01-03 17:42:00,
2013-01-03 07:52:00,67.0,63.0,30.29,East,82,17.0,29.0,86,0.00,,,0.00,0.000000,,2013-01-03 17:52:00,
2013-01-03 08:13:00,67.0,63.0,30.31,ENE,62,14.0,25.0,87,0.00,,,-99.99,0.000000,,2013-01-03 18:13:00,
2013-01-03 08:22:00,67.0,63.0,30.31,ENE,62,14.0,25.0,87,0.00,,,-99.99,0.000000,,2013-01-03 18:22:00,
2013-01-03 08:33:00,67.0,63.0,30.31,ENE,62,14.0,25.0,87,0.00,,,-99.99,0.000000,,2013-01-03 18:33:00,
2013-01-03 08:42:00,67.0,63.0,30.31,ENE,62,14.0,25.0,87,0.00,,,-99.99,0.000000,,2013-01-03 18:42:00,
2013-01-03 08:52:00,67.0,63.0,30.31,ENE,62,14.0,25.0,87,0.00,,,-99.99,0.000000,,2013-01-03 18:52:00,
2013-01-03 08:53:00,69.0,65.0,30.32,East,86,18.0,33.0,87,0.00,,,0.00,9.000000,,2013-01-03 18:53:00,
2013-01-03 09:52:00,69.0,65.0,30.32,East,86,18.0,33.0,87,0.00,,,0.00,9.000000,,2013-01-03 19:52:00,
2013-01-03 09:53:00,69.0,65.0,30.35,ENE,75,15.0,32.0,87,0.00,,,0.00,92.000000,,2013-01-03 19:53:00,
2013-01-03 10:22:00,69.0,65.0,30.35,ENE,75,15.0,32.0,87,0.00,,,0.00,92.000000,,2013-01-03 20:22:00,
2013-01-03 10:33:00,69.0,65.0,30.35,ENE,75,15.0,32.0,87,0.00,,,0.00,92.000000,,2013-01-03 20:33:00,
2013-01-03 10:42:00,69.0,65.0,30.35,ENE,75,15.0,32.0,87,0.00,,,0.00,92.000000,,2013-01-03 20:42:00,
2013-01-03 11:12:00,70.0,66.0,30.34,East,79,18.0,32.0,88,0.00,,,0.00,139.000000,,2013-01-03 21:12:00,
2013-01-03 11:22:00,70.0,66.0,30.34,East,79,18.0,32.0,88,0.00,,,0.00,139.000000,,2013-01-03 21:22:00,
2013-01-03 11:35:00,70.0,66.0,30.34,East,79,18.0,32.0,88,0.00,,,0.00,139.000000,,2013-01-03 21:35:00,
2013-01-03 11:46:00,70.0,66.0,30.34,East,79,18.0,32.0,88,0.00,,,0.00,139.000000,,2013-01-03 21:46:00,
2013-01-03 11:52:00,70.0,66.0,30.34,East,79,18.0,32.0,88,0.00,,,0.00,139.000000,,2013-01-03 21:52:00,
2013-01-03 12:22:00,74.0,68.0,30.31,East,87,21.0,30.0,83,0.00,,,0.00,351.000000,,2013-01-03 22:22:00,
2013-01-03 12:32:00,74.0,68.0,30.31,East,87,21.0,30.0,83,0.00,,,0.00,351.000000,,2013-01-03 22:32:00,
2013-01-03 12:42:00,74.0,68.0,30.31,East,87,21.0,30.0,83,0.00,,,0.00,351.000000,,2013-01-03 22:42:00,
2013-01-03 12:52:00,74.0,68.0,30.31,East,87,21.0,30.0,83,0.00,,,0.00,351.000000,,2013-01-03 22:52:00,
2013-01-03 13:22:00,74.0,68.0,30.29,East,85,20.0,32.0,81,0.00,,,0.00,870.000000,,2013-01-03 23:22:00,
2013-01-03 13:32:00,74.0,68.0,30.29,East,85,20.0,32.0,81,0.00,,,0.00,870.000000,,2013-01-03 23:32:00,
2013-01-03 13:42:00,74.0,68.0,30.29,East,85,20.0,32.0,81,0.00,,,0.00,870.000000,,2013-01-03 23:42:00,
2013-01-03 13:52:00,74.0,68.0,30.29,East,85,20.0,32.0,81,0.00,,,0.00,870.000000,,2013-01-03 23:52:00,
2013-01-03 14:12:00,73.0,66.0,30.28,ENE,74,20.0,31.0,78,0.00,,,0.00,846.000000,,2013-01-04 00:12:00,
2013-01-03 14:22:00,73.0,66.0,30.28,ENE,74,20.0,31.0,78,0.00,,,0.00,846.000000,,2013-01-04 00:22:00,
2013-01-03 14:32:00,73.0,66.0,30.28,ENE,74,20.0,31.0,78,0.00,,,0.00,846.000000,,2013-01-04 00:32:00,
2013-01-03 14:42:00,73.0,66.0,30.28,ENE,74,20.0,31.0,78,0.00,,,0.00,846.000000,,2013-01-04 00:42:00,
2013-01-03 14:52:00,73.0,66.0,30.28,ENE,74,20.0,31.0,78,0.00,,,0.00,846.000000,,2013-01-04 00:52:00,
2013-01-03 15:12:00,70.0,64.0,30.27,ENE,67,16.0,34.0,81,0.00,,,0.00,807.000000,,2013-01-04 01:12:00,
2013-01-03 15:22:00,70.0,64.0,30.27,ENE,67,16.0,34.0,81,0.00,,,0.00,807.000000,,2013-01-04 01:22:00,
2013-01-03 15:32:00,70.0,64.0,30.27,ENE,67,16.0,34.0,81,0.00,,,0.00,807.000000,,2013-01-04 01:32:00,
2013-01-03 15:42:00,70.0,64.0,30.27,ENE,67,16.0,34.0,81,0.00,,,0.00,807.000000,,2013-01-04 01:42:00,
2013-01-03 15:52:00,70.0,64.0,30.27,ENE,67,16.0,34.0,81,0.00,,,0.00,807.000000,,2013-01-04 01:52:00,
2013-01-03 16:12:00,72.0,65.0,30.28,ENE,66,18.0,35.0,78,0.00,,,0.00,244.000000,,2013-01-04 02:12:00,
2013-01-03 16:22:00,72.0,65.0,30.28,ENE,66,18.0,35.0,78,0.00,,,0.00,244.000000,,2013-01-04 02:22:00,
2013-01-03 16:32:00,72.0,65.0,30.28,ENE,66,18.0,35.0,78,0.00,,,0.00,244.000000,,2013-01-04 02:32:00,
2013-01-03 16:42:00,72.0,65.0,30.28,ENE,66,18.0,35.0,78,0.00,,,0.00,244.000000,,2013-01-04 02:42:00,
2013-01-03 16:52:00,72.0,65.0,30.28,ENE,66,18.0,35.0,78,0.00,,,0.00,244.000000,,2013-01-04 02:52:00,
2013-01-03 17:12:00,70.0,62.0,30.29,ENE,66,18.0,30.0,75,0.00,,,0.00,198.000000,,2013-01-04 03:12:00,
2013-01-03 17:22:00,70.0,62.0,30.29,ENE,66,18.0,30.0,75,0.00,,,0.00,198.000000,,2013-01-04 03:22:00,
2013-01-03 17:32:00,70.0,62.0,30.29,ENE,66,18.0,30.0,75,0.00,,,0.00,198.000000,,2013-01-04 03:32:00,
2013-01-03 17:42:00,70.0,62.0,30.29,ENE,66,18.0,30.0,75,0.00,,,0.00,198.000000,,2013-01-04 03:42:00,
2013-01-03 17:52:00,70.0,62.0,30.29,ENE,66,18.0,30.0,75,0.00,,,0.00,198.000000,,2013-01-04 03:52:00,
2013-01-03 18:12:00,70.0,63.0,30.30,ENE,76,15.0,30.0,79,0.00,,,0.00,105.000000,,2013-01-04 04:12:00,
2013-01-03 18:22:00,70.0,63.0,30.30,ENE,76,15.0,30.0,79,0.00,,,0.00,105.000000,,2013-01-04 04:22:00,
2013-01-03 18:32:00,70.0,63.0,30.30,ENE,76,15.0,30.0,79,0.00,,,0.00,105.000000,,2013-01-04 04:32:00,
2013-01-03 18:42:00,70.0,63.0,30.30,ENE,76,15.0,30.0,79,0.00,,,0.00,105.000000,,2013-01-04 04:42:00,
2013-01-03 18:52:00,70.0,63.0,30.30,ENE,76,15.0,30.0,79,0.00,,,0.00,105.000000,,2013-01-04 04:52:00,
2013-01-03 19:22:00,71.0,63.0,30.33,NE,55,15.0,33.0,77,0.00,,,0.00,37.000000,,2013-01-04 05:22:00,
2013-01-03 19:33:00,71.0,63.0,30.33,NE,55,15.0,33.0,77,0.00,,,0.00,37.000000,,2013-01-04 05:33:00,
2013-01-03 19:42:00,71.0,63.0,30.33,NE,55,15.0,33.0,77,0.00,,,0.00,37.000000,,2013-01-04 05:42:00,
2013-01-03 19:52:00,71.0,63.0,30.33,NE,55,15.0,33.0,77,0.00,,,0.00,37.000000,,2013-01-04 05:52:00,
2013-01-03 20:12:00,69.0,61.0,30.34,ENE,60,21.0,32.0,77,0.00,,,0.00,0.000000,,2013-01-04 06:12:00,
2013-01-03 20:22:00,69.0,61.0,30.34,ENE,60,21.0,32.0,77,0.00,,,0.00,0.000000,,2013-01-04 06:22:00,
2013-01-03 20:32:00,69.0,61.0,30.34,ENE,60,21.0,32.0,77,0.00,,,0.00,0.000000,,2013-01-04 06:32:00,
2013-01-03 20:42:00,69.0,61.0,30.34,ENE,60,21.0,32.0,77,0.00,,,0.00,0.000000,,2013-01-04 06:42:00,
2013-01-03 20:52:00,69.0,61.0,30.34,ENE,60,21.0,32.0,77,0.00,,,0.00,0.000000,,2013-01-04 06:52:00,
2013-01-03 21:22:00,70.0,64.0,30.35,ENE,61,14.0,30.0,80,0.00,,,0.00,0.000000,,2013-01-04 07:22:00,
2013-01-03 21:32:00,70.0,64.0,30.35,ENE,61,14.0,30.0,80,0.00,,,0.00,0.000000,,2013-01-04 07:32:00,
2013-01-03 21:42:00,70.0,64.0,30.35,ENE,61,14.0,30.0,80,0.00,,,0.00,0.000000,,2013-01-04 07:42:00,
2013-01-03 21:52:00,70.0,64.0,30.35,ENE,61,14.0,30.0,80,0.00,,,0.00,0.000000,,2013-01-04 07:52:00,
2013-01-03 22:12:00,67.0,62.0,30.34,NNE,31,11.0,23.0,84,0.00,,,0.00,0.000000,,2013-01-04 08:12:00,
2013-01-03 22:22:00,67.0,62.0,30.34,NNE,31,11.0,23.0,84,0.00,,,0.00,0.000000,,2013-01-04 08:22:00,
2013-01-03 22:32:00,67.0,62.0,30.34,NNE,31,11.0,23.0,84,0.00,,,0.00,0.000000,,2013-01-04 08:32:00,
2013-01-03 22:42:00,67.0,62.0,30.34,NNE,31,11.0,23.0,84,0.00,,,0.00,0.000000,,2013-01-04 08:42:00,
2013-01-03 22:52:00,67.0,62.0,30.34,NNE,31,11.0,23.0,84,0.00,,,0.00,0.000000,,2013-01-04 08:52:00,